GW3839 Weather Reports


time (UTC)temp
F
wind
direction
speed
knots
gust
knots
rain 1hr
in
rain 24hr
in
rain mn
in
humidity
%
barometer
mb
20260906122428 71 11 0.0 0.0 0.00 0.00 0.00 95 1018.2
20260906121925 71 76 0.9 1.7 0.00 0.00 0.00 95 1018.0
20260906121421 71 56 0.9 0.9 0.00 0.00 0.00 95 1018.3
20260906120917 71 65 0.0 0.0 0.00 0.00 0.00 95 1018.0
20260906120412 71 67 0.0 0.0 0.00 0.00 0.00 95 1017.9
20260906115908 71 66 0.0 0.0 0.00 0.00 0.00 95 1017.9
20260906115404 71 72 0.9 0.9 0.00 0.00 0.00 95 1017.9
20260906114903 71 73 0.9 1.7 0.00 0.00 0.00 95 1017.8
20260906114358 71 74 1.7 1.7 0.00 0.00 0.00 95 1017.7
20260906113854 71 88 0.0 0.9 0.00 0.00 0.00 95 1017.8
20260906113352 71 86 0.9 1.7 0.00 0.00 0.00 95 1017.7
20260906112848 71 84 0.9 0.9 0.00 0.00 0.00 95 1017.6
20260906112343 71 88 0.0 0.0 0.00 0.00 0.00 96 1017.4
20260906111838 72 345 1.7 1.7 0.00 0.00 0.00 96 1017.7
20260906111337 72 328 1.7 1.7 0.00 0.00 0.00 96 1017.7
20260906110827 72 88 0.9 0.9 0.00 0.00 0.00 96 1017.7
20260906110323 72 86 0.0 0.0 0.00 0.00 0.00 96 1017.7
20260906105822 72 27 1.7 1.7 0.00 0.00 0.00 96 1017.4
20260906105318 71 63 0.0 0.0 0.00 0.00 0.00 96 1017.3
20260906104813 71 45 1.7 2.6 0.00 0.00 0.00 96 1017.2
20260906104311 71 74 0.0 0.0 0.00 0.00 0.00 96 1017.1
20260906103809 71 75 0.0 0.0 0.00 0.00 0.00 96 1016.9
20260906103303 71 82 0.0 0.9 0.00 0.00 0.00 97 1017.0
20260906102800 71 78 0.0 0.0 0.00 0.00 0.00 97 1017.2
20260906102258 71 151 0.9 0.9 0.00 0.00 0.00 97 1017.0
20260906101754 71 6 0.0 0.9 0.00 0.00 0.00 97 1017.2
20260906101248 71 143 0.9 0.9 0.00 0.00 0.00 97 1017.1
20260906100744 71 68 1.7 2.6 0.00 0.00 0.00 97 1017.2
20260906100243 71 81 1.7 1.7 0.00 0.00 0.00 97 1017.1
20260906095739 71 110 0.0 0.0 0.00 0.00 0.00 97 1017.0
20260906095234 71 93 0.0 0.0 0.00 0.00 0.00 97 1016.7
20260906094733 71 26 1.7 2.6 0.00 0.00 0.00 97 1017.1
20260906094228 71 43 0.0 0.9 0.00 0.00 0.00 97 1017.0
20260906093724 71 67 0.0 0.0 0.00 0.00 0.00 97 1016.9
20260906093214 71 37 1.7 2.6 0.00 0.00 0.00 96 1017.0
20260906092709 71 36 1.7 2.6 0.00 0.00 0.00 96 1017.0
20260906092208 71 274 1.7 1.7 0.00 0.00 0.00 96 1017.0
20260906091705 71 17 0.9 0.9 0.00 0.00 0.00 96 1016.8
20260906091201 71 83 0.0 0.0 0.00 0.00 0.00 96 1017.0
20260906090657 71 91 0.9 0.9 0.00 0.00 0.00 96 1016.9
20260906090155 71 65 2.6 5.2 0.00 0.00 0.00 95 1016.7
20260906085655 71 69 1.7 2.6 0.00 0.00 0.00 95 1016.9
20260906085149 71 67 0.0 0.9 0.00 0.00 0.00 95 1016.9
20260906084644 71 78 0.0 0.9 0.00 0.00 0.00 95 1016.7
20260906084143 71 39 0.9 1.7 0.00 0.00 0.00 95 1016.9
20260906083638 71 71 1.7 2.6 0.00 0.00 0.00 94 1016.9
20260906083133 71 60 1.7 1.7 0.00 0.00 0.00 94 1016.7
20260906082629 71 51 1.7 2.6 0.00 0.00 0.00 94 1017.0
20260906082124 71 357 2.6 2.6 0.00 0.00 0.00 94 1016.8
20260906081620 71 41 0.9 1.7 0.00 0.00 0.00 93 1016.9
20260906081115 71 41 1.7 1.7 0.00 0.00 0.00 93 1016.8
20260906080612 71 46 1.7 2.6 0.00 0.00 0.00 93 1016.8
20260906080107 71 58 0.9 1.7 0.00 0.00 0.00 93 1016.7
20260906075601 71 63 1.7 2.6 0.00 0.00 0.00 94 1016.8
20260906075055 70 46 1.7 2.6 0.00 0.00 0.00 94 1017.1
20260906074550 70 34 1.7 1.7 0.00 0.00 0.00 94 1017.1
20260906074043 70 55 0.9 1.7 0.00 0.00 0.00 94 1017.1
20260906073538 70 52 1.7 2.6 0.00 0.00 0.00 94 1017.0
20260906073034 71 36 1.7 2.6 0.00 0.00 0.00 93 1016.9
20260906072529 71 60 1.7 1.7 0.00 0.00 0.00 93 1017.0
20260906072026 71 72 0.9 1.7 0.00 0.00 0.00 93 1017.0
20260906071522 71 56 0.9 0.9 0.00 0.00 0.00 93 1016.9
20260906071017 71 69 0.9 0.9 0.00 0.00 0.00 93 1017.1
20260906070513 71 54 0.9 0.9 0.00 0.00 0.00 93 1016.8
20260906070008 71 58 0.9 0.9 0.00 0.00 0.00 92 1017.0
20260906065508 71 12 1.7 2.6 0.00 0.00 0.00 92 1016.9
20260906065003 71 64 0.9 0.9 0.00 0.00 0.00 92 1016.9
20260906064459 72 61 0.9 0.9 0.00 0.00 0.00 91 1017.0
20260906063954 72 81 0.9 1.7 0.00 0.00 0.00 91 1017.0
20260906063449 72 61 0.9 0.9 0.00 0.00 0.00 91 1016.9
20260906062943 72 50 2.6 2.6 0.00 0.00 0.00 90 1017.1
20260906062439 72 58 0.9 1.7 0.00 0.00 0.00 90 1016.9
20260906061933 73 59 1.7 1.7 0.00 0.00 0.00 90 1017.0
20260906061424 73 358 1.7 2.6 0.00 0.00 0.00 89 1017.1
20260906060918 73 82 0.9 0.9 0.00 0.00 0.00 88 1017.2
20260906060415 73 64 0.9 0.9 0.00 0.00 0.00 88 1016.9
20260906055912 73 81 1.7 1.7 0.00 0.00 0.00 88 1017.1
20260906055407 73 49 2.6 2.6 0.00 0.00 0.00 88 1016.8
20260906054902 73 65 0.9 1.7 0.00 0.00 0.00 89 1017.0
20260906054357 74 10 0.9 1.7 0.00 0.00 0.00 89 1016.9
20260906053853 74 76 0.0 0.0 0.00 0.00 0.00 89 1016.9
20260906053349 74 57 0.9 0.9 0.00 0.00 0.00 88 1016.8
20260906052844 74 59 1.7 1.7 0.00 0.00 0.00 88 1016.8
20260906052341 75 65 0.0 0.0 0.00 0.00 0.00 87 1016.8
20260906051837 75 65 1.7 1.7 0.00 0.00 0.00 87 1016.8
20260906051337 75 78 1.7 1.7 0.00 0.00 0.00 87 1016.6
20260906050833 75 48 0.0 0.9 0.00 0.00 0.00 87 1016.5
20260906050327 76 91 0.0 0.0 0.00 0.00 0.00 86 1016.7
20260906045826 76 57 0.9 0.9 0.00 0.00 0.00 85 1016.7
20260906045320 76 130 0.9 1.7 0.00 0.00 0.00 85 1016.8
20260906044816 76 52 1.7 3.5 0.00 0.00 0.00 86 1016.6
20260906044311 76 40 0.0 0.9 0.00 0.00 0.00 86 1016.5
20260906043807 77 331 2.6 3.5 0.00 0.00 0.00 86 1016.5
20260906043303 77 90 0.9 0.9 0.00 0.00 0.00 86 1016.4
20260906042757 77 9 2.6 3.5 0.00 0.00 0.00 85 1016.5
20260906042256 77 85 0.9 1.7 0.00 0.00 0.00 85 1016.5
20260906041752 78 101 0.9 1.7 0.00 0.00 0.00 85 1016.4
20260906041247 78 45 1.7 1.7 0.00 0.00 0.00 84 1016.5
20260906040742 78 62 1.7 1.7 0.00 0.00 0.00 84 1016.3
20260906040237 78 3 2.6 5.2 0.00 0.00 0.00 83 1016.2
20260906035733 78 83 1.7 2.6 0.00 0.00 0.00 83 1016.3
20260906035229 79 29 5.2 7.0 0.00 0.00 0.00 83 1016.0
20260906034728 79 31 1.7 2.6 0.00 0.00 0.00 85 1016.5
20260906034223 79 353 3.5 7.0 0.00 0.00 0.00 85 1016.0
20260906033719 79 62 0.0 0.0 0.00 0.00 0.00 85 1015.9
20260906033218 80 348 0.9 0.9 0.00 0.00 0.00 85 1016.1
20260906032716 80 14 1.7 2.6 0.00 0.00 0.00 84 1016.0
20260906032215 80 52 0.0 0.9 0.00 0.00 0.00 84 1015.8
20260906031710 81 72 1.7 2.6 0.00 0.00 0.00 83 1015.9
20260906031206 81 68 0.9 0.9 0.00 0.00 0.00 83 1015.9
20260906030706 82 48 1.7 3.5 0.00 0.00 0.00 83 1015.6
20260906030200 82 30 2.6 7.0 0.00 0.00 0.00 83 1015.6
20260906025659 82 71 1.7 2.6 0.00 0.00 0.00 82 1015.7
20260906025154 82 136 0.0 0.9 0.00 0.00 0.00 82 1015.5
20260906024648 83 125 0.9 1.7 0.00 0.00 0.00 82 1015.3
20260906024147 83 60 0.9 1.7 0.00 0.00 0.00 81 1015.1
20260906023644 83 85 0.0 0.0 0.00 0.00 0.00 81 1015.2
20260906023143 83 63 2.6 2.6 0.00 0.00 0.00 81 1015.2
20260906022638 83 36 1.7 2.6 0.00 0.00 0.00 81 1015.2
20260906022135 83 42 2.6 3.5 0.00 0.00 0.00 80 1015.0
20260906021630 83 53 2.6 3.5 0.00 0.00 0.00 80 1015.1
20260906021128 83 56 0.0 0.0 0.00 0.00 0.00 81 1015.0
20260906020623 83 41 0.9 0.9 0.00 0.00 0.00 81 1015.0
20260906020118 83 86 0.9 0.9 0.00 0.00 0.00 81 1014.9
20260906015613 83 76 0.9 0.9 0.00 0.00 0.00 81 1015.0
20260906015111 83 42 0.9 1.7 0.00 0.00 0.00 81 1014.8
20260906014606 83 51 0.9 1.7 0.00 0.00 0.00 81 1014.8
20260906014102 83 41 0.9 0.9 0.00 0.00 0.00 81 1014.8
20260906013557 84 92 0.0 0.0 0.00 0.00 0.00 81 1014.8
20260906013052 84 88 0.0 0.0 0.00 0.00 0.00 80 1014.6
20260906012548 84 97 0.0 0.0 0.00 0.00 0.00 80 1014.5
20260906012047 84 106 0.0 0.0 0.00 0.00 0.00 79 1014.5
20260906011543 84 104 0.0 0.0 0.00 0.00 0.00 78 1014.3
20260906011043 85 93 0.0 0.0 0.00 0.00 0.00 78 1014.2
20260906010538 85 100 0.0 0.0 0.00 0.00 0.00 77 1014.2
20260906010034 86 81 0.0 0.0 0.00 0.00 0.00 76 1014.2
20260906005534 86 101 0.0 0.0 0.00 0.00 0.00 76 1014.3
20260906005033 86 102 0.0 0.0 0.00 0.00 0.00 75 1014.3
20260906004532 86 79 0.0 0.9 0.00 0.00 0.00 74 1014.3
20260906004027 87 96 0.9 0.9 0.00 0.00 0.00 73 1014.3
20260906003522 87 98 0.0 0.0 0.00 0.00 0.00 73 1014.4
20260906003019 87 101 0.0 0.0 0.00 0.00 0.00 72 1014.2
20260906002513 88 106 0.0 0.0 0.00 0.00 0.00 70 1014.2
20260906002008 89 99 0.0 0.0 0.00 0.00 0.00 70 1013.8
20260906001504 89 58 0.0 0.0 0.00 0.00 0.00 69 1014.0
20260906000958 89 87 0.0 0.9 0.00 0.00 0.00 67 1014.0
20260906000455 90 55 0.0 0.0 0.00 0.00 0.00 66 1014.1
20260905235953 90 87 0.9 1.7 0.00 0.00 0.00 65 1014.2
20260905235448 91 79 0.0 0.9 0.00 0.00 0.00 65 1014.0
20260905234943 91 53 0.9 0.9 0.00 0.00 0.00 64 1014.1
20260905234438 92 122 0.9 1.7 0.00 0.00 0.00 63 1014.2
20260905233932 92 127 0.9 1.7 0.00 0.00 0.00 62 1014.1
20260905233428 92 67 0.9 0.9 0.00 0.00 0.00 61 1014.1
20260905232927 93 54 2.6 3.5 0.00 0.00 0.00 61 1014.0
20260905232423 93 53 1.7 1.7 0.00 0.00 0.00 61 1014.0
20260905231918 93 62 2.6 2.6 0.00 0.00 0.00 61 1014.0
20260905231414 94 30 0.9 1.7 0.00 0.00 0.00 60 1014.0
20260905230911 94 71 1.7 2.6 0.00 0.00 0.00 59 1013.8
20260905230408 95 350 2.6 3.5 0.00 0.00 0.00 57 1014.0
20260905225901 95 32 0.9 0.9 0.00 0.00 0.00 57 1013.9
20260905225356 95 134 2.6 3.5 0.00 0.00 0.00 57 1013.9
20260905224851 95 359 1.7 2.6 0.00 0.00 0.00 56 1013.9
20260905224341 95 56 1.7 1.7 0.00 0.00 0.00 56 1013.9
20260905223835 96 22 2.6 2.6 0.00 0.00 0.00 56 1013.8
20260905223333 95 136 1.7 1.7 0.00 0.00 0.00 57 1013.7
20260905222828 95 104 1.7 2.6 0.00 0.00 0.00 56 1013.6
20260905222327 96 35 1.7 1.7 0.00 0.00 0.00 56 1013.7
20260905221823 96 16 0.9 1.7 0.00 0.00 0.00 56 1013.7
20260905221320 95 159 0.9 1.7 0.00 0.00 0.00 56 1013.6
20260905220815 96 349 1.7 1.7 0.00 0.00 0.00 56 1013.7
20260905220311 96 20 1.7 2.6 0.00 0.00 0.00 53 1013.7
20260905215810 97 83 1.7 2.6 0.00 0.00 0.00 51 1013.6
20260905215306 96 86 0.9 1.7 0.00 0.00 0.00 50 1013.6
20260905214802 97 60 1.7 1.7 0.00 0.00 0.00 52 1013.9
20260905214258 97 339 1.7 1.7 0.00 0.00 0.00 50 1013.7
20260905213753 96 339 1.7 1.7 0.00 0.00 0.00 51 1013.9
20260905213249 96 358 1.7 2.6 0.00 0.00 0.00 51 1013.9
20260905212743 98 5 1.7 2.6 0.00 0.00 0.00 49 1013.7
20260905212238 98 21 2.6 3.5 0.00 0.00 0.00 48 1013.9
20260905211737 98 342 2.6 2.6 0.00 0.00 0.00 49 1014.0
20260905211233 98 92 1.7 2.6 0.00 0.00 0.00 50 1014.0
20260905210729 98 244 1.7 1.7 0.00 0.00 0.00 49 1014.0
20260905210229 98 13 1.7 1.7 0.00 0.00 0.00 48 1013.7
20260905205728 98 54 2.6 2.6 0.00 0.00 0.00 48 1014.0
20260905205222 98 25 0.0 0.9 0.00 0.00 0.00 48 1013.7
20260905204716 98 316 1.7 1.7 0.00 0.00 0.00 47 1014.0
20260905204212 98 352 1.7 2.6 0.00 0.00 0.00 48 1013.9
20260905203706 99 22 3.5 5.2 0.00 0.00 0.00 48 1013.9
20260905203202 98 32 1.7 1.7 0.00 0.00 0.00 48 1013.8
20260905202657 97 355 2.6 2.6 0.00 0.00 0.00 50 1013.9
20260905202152 98 33 0.9 1.7 0.00 0.00 0.00 49 1014.1
20260905201648 99 123 0.9 1.7 0.00 0.00 0.00 48 1014.2
20260905201147 99 2 3.5 5.2 0.00 0.00 0.00 47 1014.2
20260905200643 99 256 5.2 6.1 0.00 0.00 0.00 47 1014.3
20260905200138 98 261 3.5 6.1 0.00 0.00 0.00 48 1014.2
20260905195636 99 347 2.6 3.5 0.00 0.00 0.00 48 1014.3
20260905195131 100 1 0.9 0.9 0.00 0.00 0.00 47 1014.1
20260905194626 99 230 1.7 1.7 0.00 0.00 0.00 48 1014.2
20260905194126 98 69 1.7 1.7 0.00 0.00 0.00 50 1014.3
20260905193621 99 306 2.6 3.5 0.00 0.00 0.00 48 1014.2
20260905193116 98 153 1.7 2.6 0.00 0.00 0.00 49 1014.2
20260905192612 97 150 0.9 0.9 0.00 0.00 0.00 51 1014.4
20260905192107 98 240 1.7 1.7 0.00 0.00 0.00 49 1014.4
20260905191606 97 334 5.2 7.0 0.00 0.00 0.00 50 1014.6
20260905191105 96 113 0.0 0.0 0.00 0.00 0.00 52 1014.5
20260905190603 98 346 2.6 3.5 0.00 0.00 0.00 51 1014.5
20260905185601 99 339 1.7 2.6 0.00 0.00 0.00 49 1014.6
20260905185056 98 275 4.3 6.1 0.00 0.00 0.00 50 1014.8
20260905184551 98 232 1.7 2.6 0.00 0.00 0.00 50 1014.9
20260905184049 98 336 1.7 2.6 0.00 0.00 0.00 50 1014.9
20260905183543 98 58 0.0 0.9 0.00 0.00 0.00 50 1014.9
20260905183038 98 354 1.7 2.6 0.00 0.00 0.00 49 1015.1
20260905182532 98 1 2.6 3.5 0.00 0.00 0.00 49 1015.2
20260905182026 98 92 0.9 0.9 0.00 0.00 0.00 50 1015.0
20260905181521 98 171 1.7 1.7 0.00 0.00 0.00 49 1015.0
20260905181020 99 60 0.9 1.7 0.00 0.00 0.00 48 1015.1
20260905180515 98 216 0.9 1.7 0.00 0.00 0.00 48 1015.3
20260905180011 98 344 2.6 3.5 0.00 0.00 0.00 49 1015.2
20260905175510 98 37 6.1 7.8 0.00 0.00 0.00 49 1015.3
20260905175006 98 344 1.7 1.7 0.00 0.00 0.00 49 1015.2
20260905174501 98 313 2.6 2.6 0.00 0.00 0.00 48 1015.3
20260905173957 97 293 1.7 2.6 0.00 0.00 0.00 49 1015.4
20260905173453 98 339 1.7 1.7 0.00 0.00 0.00 49 1015.3
20260905172948 98 16 2.6 3.5 0.00 0.00 0.00 48 1015.2
20260905172446 98 8 1.7 1.7 0.00 0.00 0.00 50 1015.5
20260905171942 96 61 1.7 1.7 0.00 0.00 0.00 51 1015.5
20260905171438 97 45 2.6 2.6 0.00 0.00 0.00 50 1015.5
20260905170934 97 322 2.6 3.5 0.00 0.00 0.00 51 1015.7
20260905170430 97 324 0.9 1.7 0.00 0.00 0.00 52 1015.6
20260905165929 96 342 1.7 1.7 0.00 0.00 0.00 53 1015.6
20260905165425 98 46 0.9 0.9 0.00 0.00 0.00 51 1015.5
20260905164920 97 82 0.0 0.0 0.00 0.00 0.00 51 1015.7
20260905164414 96 61 2.6 3.5 0.00 0.00 0.00 52 1015.7
20260905163909 96 304 1.7 2.6 0.00 0.00 0.00 51 1015.7
20260905163406 96 83 1.7 1.7 0.00 0.00 0.00 53 1015.7
20260905162902 97 100 0.0 0.9 0.00 0.00 0.00 52 1015.7
20260905162402 97 49 1.7 2.6 0.00 0.00 0.00 51 1016.0
20260905161856 96 128 0.9 0.9 0.00 0.00 0.00 53 1015.9
20260905161355 96 251 1.7 2.6 0.00 0.00 0.00 54 1015.8
20260905160854 95 158 0.9 0.9 0.00 0.00 0.00 54 1015.9
20260905160348 95 229 1.7 1.7 0.00 0.00 0.00 54 1015.9
20260905155843 95 315 0.9 1.7 0.00 0.00 0.00 54 1015.9
20260905155343 94 217 2.6 2.6 0.00 0.00 0.00 56 1015.6
20260905154842 94 246 3.5 3.5 0.00 0.00 0.00 56 1016.0
20260905154337 94 203 1.7 1.7 0.00 0.00 0.00 56 1015.9
20260905153833 93 126 0.0 0.9 0.00 0.00 0.00 56 1015.7
20260905153330 93 221 2.6 3.5 0.00 0.00 0.00 57 1016.0
20260905152824 93 72 0.9 0.9 0.00 0.00 0.00 57 1015.8
20260905152323 92 273 1.7 2.6 0.00 0.00 0.00 58 1015.9
20260905151818 92 242 1.7 1.7 0.00 0.00 0.00 57 1015.8
20260905151313 92 211 0.9 0.9 0.00 0.00 0.00 59 1015.8
20260905150808 92 223 1.7 1.7 0.00 0.00 0.00 58 1015.7
20260905150307 90 119 0.0 0.9 0.00 0.00 0.00 61 1015.8
20260905145804 91 67 0.9 1.7 0.00 0.00 0.00 60 1015.9
20260905145259 91 264 2.6 3.5 0.00 0.00 0.00 59 1015.9
20260905144758 90 333 0.9 0.9 0.00 0.00 0.00 61 1015.9
20260905144254 89 241 2.6 2.6 0.00 0.00 0.00 59 1015.7
20260905143752 89 256 3.5 3.5 0.00 0.00 0.00 61 1015.8
20260905143247 89 244 3.5 5.2 0.00 0.00 0.00 62 1015.9
20260905142745 88 237 1.7 2.6 0.00 0.00 0.00 65 1015.9
20260905142240 88 252 2.6 2.6 0.00 0.00 0.00 64 1015.8
20260905141736 88 238 2.6 2.6 0.00 0.00 0.00 65 1016.0
20260905141232 87 192 1.7 1.7 0.00 0.00 0.00 66 1015.9
20260905140727 88 219 1.7 1.7 0.00 0.00 0.00 64 1015.9
20260905140221 88 183 0.9 0.9 0.00 0.00 0.00 67 1015.9
20260905135721 87 151 0.9 1.7 0.00 0.00 0.00 69 1015.8
20260905135217 86 221 0.9 1.7 0.00 0.00 0.00 70 1016.0
20260905134716 85 152 0.9 1.7 0.00 0.00 0.00 71 1015.9
20260905134215 84 147 0.9 0.9 0.00 0.00 0.00 74 1016.0
20260905133711 84 179 1.7 1.7 0.00 0.00 0.00 74 1016.0
20260905133211 83 152 0.9 0.9 0.00 0.00 0.00 76 1016.2
20260905132709 82 163 1.7 1.7 0.00 0.00 0.00 77 1016.0
20260905132205 81 197 1.7 1.7 0.00 0.00 0.00 80 1015.9
20260905131700 80 180 0.9 1.7 0.00 0.00 0.00 80 1015.9
20260905131155 79 167 0.9 0.9 0.00 0.00 0.00 83 1016.1
20260905130650 78 197 1.7 1.7 0.00 0.00 0.00 84 1016.1
20260905130149 78 193 0.9 0.9 0.00 0.00 0.00 85 1016.0
20260905125644 77 144 0.0 0.0 0.00 0.00 0.00 87 1015.9
20260905125140 76 142 0.0 0.0 0.00 0.00 0.00 89 1015.9
20260905124636 75 141 0.0 0.0 0.00 0.00 0.00 89 1015.8
20260905124132 75 141 0.0 0.0 0.00 0.00 0.00 90 1015.7
20260905123627 74 142 0.0 0.9 0.00 0.00 0.00 91 1015.6
20260905123124 74 131 0.0 0.0 0.00 0.00 0.00 91 1015.8